Regional Weather Roundup
Issued by NWS Binghamton, NY

Home | Current Version | Previous Version | Text Only | Print | Product List | Glossary On
Versions: 1 2 3 4 5 6 7 8 9 10 11 12 13 14 15 16 17 18 19 20 21 22 23 24 25 26 27 28 29 30 31 32 33 34 35 36 37 38 39 40 41 42 43 44 45 46 47 48 49 50
983
ASUS41 KBGM 281010
RWRBGM

REGIONAL WEATHER ROUNDUP
NATIONAL WEATHER SERVICE BINGHAMTON NY
600 AM EDT THU JUL 28 2016

Note: "fair" indicates few or no clouds below 12,000 feet with no
significant weather and/or obstructions to visibility.

* = Station(s) that does not report precipitation, such as rain,
snow, etc, also no thunder or fog.

NYZ009-015>018-022>025-036-037-044>046-055>057-062-281100
...Central New York...

CITY           SKY/WX    TMP DP  RH WIND       PRES   REMARKS
Binghamton     CLEAR     64  59  83 CALM      29.97S
Cortland       FAIR      61  61 100 CALM      29.97R
Dansville      PTCLDY    64  60  87 SE8       29.95S
Elmira         PTCLDY    61  58  90 SW3       29.95R
Ithaca         CLEAR     62  60  93 E7        29.96R
Hamilton       CLEAR     61  59  94 CALM      29.97R
Hornell        CLEAR     59  57  94 SE3       30.01R
Monticello     CLEAR     59  57  94 CALM      29.98S
Norwich        CLEAR     57  57 100 CALM      29.97S
Oneonta        CLEAR     61  61 100 CALM      29.99S
Penn Yan       CLEAR     67  63  87 SW3       29.95R
Rome           PTCLDY    64  63  96 CALM      29.93R
Sidney         CLOUDY    61  61 100 CALM      29.98R FOG
Syracuse       MOCLDY    68  64  87 CALM      29.90S
$$

PAZ038>040-043-044-047-048-072-281100
...Northeast Pennsylvania...

CITY           SKY/WX    TMP DP  RH WIND       PRES   REMARKS
Hazleton       CLEAR     59  59 100 CALM      30.01S
Scranton       PTCLDY    65  59  81 E6        29.95R
$$
&&
KEY
WCI = Wind Chill Index
VSB = Visibility
HX  = Heat Index
$$




USA.gov is the U.S. government's official web portal to all federal, state and local government web resources and services.